Time,TemperatureF,DewpointF,PressureIn,WindDirection,WindDirectionDegrees,WindSpeedMPH,WindSpeedGustMPH,Humidity,HourlyPrecipIn,Conditions,Clouds,dailyrainin,SoftwareType,DateUTC
2013-03-15 00:03:00,53.5,52.7,30.03,SSE,157,0.0,0.0,97,0.00,,,0.00,Wunderground v.1.15,2013-03-15 07:03:00,
2013-03-15 00:13:00,53.5,52.7,30.03,SE,144,0.0,0.0,97,0.00,,,0.00,Wunderground v.1.15,2013-03-15 07:13:00,
2013-03-15 00:23:00,53.3,52.5,30.03,SE,145,0.0,0.0,97,0.00,,,0.00,Wunderground v.1.15,2013-03-15 07:23:00,
2013-03-15 00:34:00,53.3,52.5,30.02,SSE,148,0.0,0.0,97,0.00,,,0.00,Wunderground v.1.15,2013-03-15 07:34:00,
2013-03-15 00:44:00,53.2,52.4,30.03,SE,131,0.0,0.0,97,0.00,,,0.00,Wunderground v.1.15,2013-03-15 07:44:00,
2013-03-15 00:54:00,53.1,52.3,30.03,SE,145,0.0,0.0,97,0.00,,,0.00,Wunderground v.1.15,2013-03-15 07:54:00,
2013-03-15 01:03:00,53.0,52.2,30.03,West,279,0.0,0.0,97,0.00,,,0.00,Wunderground v.1.15,2013-03-15 08:03:00,
2013-03-15 01:14:00,52.7,51.9,30.03,West,275,0.0,0.0,97,0.00,,,0.00,Wunderground v.1.15,2013-03-15 08:14:00,
2013-03-15 01:24:00,52.6,51.8,30.03,West,275,0.0,0.0,97,0.00,,,0.00,Wunderground v.1.15,2013-03-15 08:24:00,
2013-03-15 01:34:00,52.6,51.8,30.03,West,275,0.0,0.0,97,0.00,,,0.00,Wunderground v.1.15,2013-03-15 08:34:00,
2013-03-15 01:44:00,52.6,51.8,30.03,West,275,0.0,0.0,97,0.00,,,0.00,Wunderground v.1.15,2013-03-15 08:44:00,
2013-03-15 01:54:00,52.6,51.8,30.03,West,275,0.0,0.0,97,0.00,,,0.00,Wunderground v.1.15,2013-03-15 08:54:00,
2013-03-15 02:03:00,52.3,51.5,30.03,NNW,338,0.0,0.0,97,0.00,,,0.00,Wunderground v.1.15,2013-03-15 09:03:00,
2013-03-15 02:13:00,52.2,51.4,30.02,NNW,338,0.0,0.0,97,0.00,,,0.00,Wunderground v.1.15,2013-03-15 09:13:00,
2013-03-15 02:24:00,52.3,51.5,30.02,NNW,338,0.0,0.0,97,0.00,,,0.00,Wunderground v.1.15,2013-03-15 09:24:00,
2013-03-15 02:34:00,52.4,51.6,30.01,NE,51,0.0,0.0,97,0.00,,,0.00,Wunderground v.1.15,2013-03-15 09:34:00,
2013-03-15 02:44:00,52.3,51.5,30.01,ENE,70,0.0,0.0,97,0.00,,,0.00,Wunderground v.1.15,2013-03-15 09:44:00,
2013-03-15 02:54:00,52.2,51.4,30.01,East,96,0.0,0.0,97,0.00,,,0.00,Wunderground v.1.15,2013-03-15 09:54:00,
2013-03-15 03:03:00,52.2,51.4,30.00,East,96,0.0,0.0,97,0.00,,,0.00,Wunderground v.1.15,2013-03-15 10:03:00,
2013-03-15 03:14:00,52.3,51.8,30.00,NNE,30,0.0,0.0,98,0.00,,,0.00,Wunderground v.1.15,2013-03-15 10:14:00,
2013-03-15 03:24:00,52.3,51.8,30.00,West,271,0.0,0.0,98,0.00,,,0.00,Wunderground v.1.15,2013-03-15 10:24:00,
2013-03-15 03:33:00,52.3,51.8,30.00,NNW,340,0.0,0.0,98,0.00,,,0.00,Wunderground v.1.15,2013-03-15 10:33:00,
2013-03-15 03:44:00,51.9,51.1,30.00,NNW,340,0.0,0.0,97,0.00,,,0.00,Wunderground v.1.15,2013-03-15 10:44:00,
2013-03-15 03:54:00,51.7,50.9,30.00,West,277,0.0,0.0,97,0.00,,,0.00,Wunderground v.1.15,2013-03-15 10:54:00,
2013-03-15 04:04:00,51.4,50.6,29.99,West,277,0.0,0.0,97,0.00,,,0.00,Wunderground v.1.15,2013-03-15 11:04:00,
2013-03-15 04:13:00,51.6,51.1,29.99,West,277,0.0,0.0,98,0.00,,,0.00,Wunderground v.1.15,2013-03-15 11:13:00,
2013-03-15 04:24:00,51.8,51.3,29.99,East,93,0.0,0.0,98,0.00,,,0.00,Wunderground v.1.15,2013-03-15 11:24:00,
2013-03-15 04:34:00,52.0,51.5,29.99,SSW,205,0.0,0.0,98,0.00,,,0.00,Wunderground v.1.15,2013-03-15 11:34:00,
2013-03-15 04:44:00,52.1,51.6,30.00,SSW,205,0.0,0.0,98,0.00,,,0.00,Wunderground v.1.15,2013-03-15 11:44:00,
2013-03-15 04:53:00,52.3,51.8,29.99,SSE,166,0.0,0.0,98,0.00,,,0.00,Wunderground v.1.15,2013-03-15 11:53:00,
2013-03-15 05:03:00,52.2,51.7,29.99,ESE,115,0.0,0.0,98,0.00,,,0.00,Wunderground v.1.15,2013-03-15 12:03:00,
2013-03-15 05:13:00,52.1,51.6,30.00,ESE,115,0.0,0.0,98,0.00,,,0.00,Wunderground v.1.15,2013-03-15 12:13:00,
2013-03-15 05:24:00,52.1,51.6,30.00,WNW,290,0.0,0.0,98,0.00,,,0.00,Wunderground v.1.15,2013-03-15 12:24:00,
2013-03-15 05:34:00,52.1,51.6,30.00,NW,319,0.0,0.0,98,0.00,,,0.00,Wunderground v.1.15,2013-03-15 12:34:00,
2013-03-15 05:44:00,52.0,51.5,30.00,South,175,0.0,0.0,98,0.00,,,0.00,Wunderground v.1.15,2013-03-15 12:44:00,
2013-03-15 05:54:00,51.9,51.4,29.99,South,175,0.0,0.0,98,0.00,,,0.00,Wunderground v.1.15,2013-03-15 12:54:00,
2013-03-15 06:03:00,51.9,51.4,30.00,South,175,0.0,0.0,98,0.00,,,0.00,Wunderground v.1.15,2013-03-15 13:03:00,
2013-03-15 06:14:00,51.9,51.4,30.00,South,175,0.0,0.0,98,0.00,,,0.00,Wunderground v.1.15,2013-03-15 13:14:00,
2013-03-15 06:24:00,51.7,51.2,30.00,South,174,0.0,0.0,98,0.00,,,0.00,Wunderground v.1.15,2013-03-15 13:24:00,
2013-03-15 06:33:00,51.5,51.0,30.00,South,174,0.0,0.0,98,0.00,,,0.00,Wunderground v.1.15,2013-03-15 13:33:00,
2013-03-15 06:44:00,51.4,50.9,30.00,East,81,0.0,0.0,98,0.00,,,0.00,Wunderground v.1.15,2013-03-15 13:44:00,
2013-03-15 06:53:00,51.4,50.9,30.00,East,81,0.0,0.0,98,0.00,,,0.00,Wunderground v.1.15,2013-03-15 13:53:00,
2013-03-15 07:04:00,51.4,50.9,30.00,ENE,76,0.0,0.0,98,0.00,,,0.00,Wunderground v.1.15,2013-03-15 14:04:00,
2013-03-15 07:14:00,51.3,50.8,30.00,ENE,76,0.0,0.0,98,0.00,,,0.00,Wunderground v.1.15,2013-03-15 14:14:00,
2013-03-15 07:23:00,51.2,50.7,30.01,ENE,76,0.0,0.0,98,0.00,,,0.00,Wunderground v.1.15,2013-03-15 14:23:00,
2013-03-15 07:33:00,51.2,50.7,30.00,ENE,63,0.0,0.0,98,0.00,,,0.00,Wunderground v.1.15,2013-03-15 14:33:00,
2013-03-15 07:44:00,51.0,50.5,30.00,SE,132,0.0,0.0,98,0.00,,,0.00,Wunderground v.1.15,2013-03-15 14:44:00,
2013-03-15 07:54:00,51.0,50.5,30.01,ENE,64,0.0,0.0,98,0.00,,,0.00,Wunderground v.1.15,2013-03-15 14:54:00,
2013-03-15 08:03:00,51.2,50.7,30.00,ENE,74,0.0,0.0,98,0.00,,,0.00,Wunderground v.1.15,2013-03-15 15:03:00,
2013-03-15 08:13:00,51.2,50.7,30.01,SE,130,0.0,0.0,98,0.00,,,0.00,Wunderground v.1.15,2013-03-15 15:13:00,
2013-03-15 08:23:00,51.2,50.7,30.00,East,99,0.0,0.0,98,0.00,,,0.00,Wunderground v.1.15,2013-03-15 15:23:00,
2013-03-15 08:33:00,51.0,50.5,30.01,ESE,104,0.0,0.0,98,0.00,,,0.00,Wunderground v.1.15,2013-03-15 15:33:00,
2013-03-15 08:43:00,50.9,50.4,30.01,ESE,105,0.0,0.0,98,0.00,,,0.00,Wunderground v.1.15,2013-03-15 15:43:00,
2013-03-15 08:54:00,51.1,50.6,30.02,SW,234,0.0,2.0,98,0.00,,,0.00,Wunderground v.1.15,2013-03-15 15:54:00,
2013-03-15 09:04:00,51.3,50.8,30.02,SW,225,0.0,0.0,98,0.00,,,0.00,Wunderground v.1.15,2013-03-15 16:04:00,
2013-03-15 09:14:00,51.8,51.3,30.01,SW,214,0.0,3.0,98,0.00,,,0.00,Wunderground v.1.15,2013-03-15 16:14:00,
2013-03-15 09:24:00,51.6,51.1,30.02,South,191,1.0,5.0,98,0.00,,,0.00,Wunderground v.1.15,2013-03-15 16:24:00,
2013-03-15 09:33:00,51.4,50.9,30.02,SSW,200,1.0,1.0,98,0.00,,,0.00,Wunderground v.1.15,2013-03-15 16:33:00,
2013-03-15 09:44:00,51.4,50.9,30.02,SW,233,0.0,0.0,98,0.00,,,0.00,Wunderground v.1.15,2013-03-15 16:44:00,
2013-03-15 09:54:00,51.1,50.6,30.02,SSW,192,0.0,0.0,98,0.00,,,0.00,Wunderground v.1.15,2013-03-15 16:54:00,
2013-03-15 10:03:00,51.2,50.7,30.02,SSE,156,0.0,0.0,98,0.00,,,0.00,Wunderground v.1.15,2013-03-15 17:03:00,
2013-03-15 10:13:00,51.6,51.1,30.02,SSE,157,0.0,0.0,98,0.00,,,0.00,Wunderground v.1.15,2013-03-15 17:13:00,
2013-03-15 10:23:00,51.4,50.9,30.02,South,182,1.0,1.0,98,0.00,,,0.00,Wunderground v.1.15,2013-03-15 17:23:00,
2013-03-15 10:33:00,51.8,51.3,30.02,South,184,0.0,0.0,98,0.00,,,0.00,Wunderground v.1.15,2013-03-15 17:33:00,
2013-03-15 10:44:00,52.4,51.9,30.03,WSW,248,0.0,0.0,98,0.00,,,0.00,Wunderground v.1.15,2013-03-15 17:44:00,
2013-03-15 10:54:00,52.7,52.2,30.03,WNW,296,0.0,0.0,98,0.00,,,0.00,Wunderground v.1.15,2013-03-15 17:54:00,
2013-03-15 11:03:00,53.2,52.7,30.03,SW,230,1.0,1.0,98,0.00,,,0.00,Wunderground v.1.15,2013-03-15 18:03:00,
2013-03-15 11:13:00,53.2,52.7,30.03,SW,229,1.0,1.0,98,0.00,,,0.00,Wunderground v.1.15,2013-03-15 18:13:00,
2013-03-15 11:24:00,53.2,52.4,30.03,WSW,251,0.0,0.0,97,0.00,,,0.00,Wunderground v.1.15,2013-03-15 18:24:00,
2013-03-15 11:34:00,53.4,52.8,30.03,South,191,0.0,0.0,98,0.00,,,0.00,Wunderground v.1.15,2013-03-15 18:34:00,
2013-03-15 11:43:00,53.5,52.7,30.03,SSW,208,0.0,0.0,97,0.00,,,0.00,Wunderground v.1.15,2013-03-15 18:43:00,
2013-03-15 11:53:00,54.2,53.4,30.02,NW,322,0.0,0.0,97,0.00,,,0.00,Wunderground v.1.15,2013-03-15 18:53:00,
2013-03-15 12:04:00,54.9,53.8,30.02,SW,227,0.0,0.0,96,0.00,,,0.00,Wunderground v.1.15,2013-03-15 19:04:00,
2013-03-15 12:14:00,56.0,54.3,30.02,South,188,1.0,1.0,94,0.00,,,0.00,Wunderground v.1.15,2013-03-15 19:14:00,
2013-03-15 12:24:00,57.1,54.5,30.01,SW,214,0.0,0.0,91,0.00,,,0.00,Wunderground v.1.15,2013-03-15 19:24:00,
2013-03-15 12:33:00,58.2,54.7,30.00,SW,221,0.0,0.0,88,0.00,,,0.00,Wunderground v.1.15,2013-03-15 19:33:00,
2013-03-15 12:43:00,58.4,54.2,30.00,South,180,1.0,1.0,86,0.00,,,0.00,Wunderground v.1.15,2013-03-15 19:43:00,
2013-03-15 12:54:00,59.2,54.7,30.00,SW,224,1.0,1.0,85,0.00,,,0.00,Wunderground v.1.15,2013-03-15 19:54:00,
2013-03-15 13:03:00,58.6,54.4,29.99,SW,219,1.0,1.0,86,0.00,,,0.00,Wunderground v.1.15,2013-03-15 20:03:00,
2013-03-15 13:14:00,57.9,54.4,29.98,WSW,241,1.0,1.0,88,0.00,,,0.00,Wunderground v.1.15,2013-03-15 20:14:00,
2013-03-15 13:23:00,58.4,54.9,29.98,South,173,0.0,0.0,88,0.00,,,0.00,Wunderground v.1.15,2013-03-15 20:23:00,
2013-03-15 13:34:00,58.9,54.7,29.98,WNW,285,1.0,1.0,86,0.00,,,0.00,Wunderground v.1.15,2013-03-15 20:34:00,
2013-03-15 13:44:00,59.6,55.4,29.97,SW,229,0.0,0.0,86,0.00,,,0.00,Wunderground v.1.15,2013-03-15 20:44:00,
2013-03-15 13:54:00,61.2,56.0,29.96,WSW,238,0.0,0.0,83,0.00,,,0.00,Wunderground v.1.15,2013-03-15 20:54:00,
2013-03-15 14:03:00,62.3,56.4,29.96,SSW,212,0.0,0.0,81,0.00,,,0.00,Wunderground v.1.15,2013-03-15 21:03:00,
2013-03-15 14:13:00,62.3,56.0,29.95,SW,222,0.0,0.0,80,0.00,,,0.00,Wunderground v.1.15,2013-03-15 21:13:00,
2013-03-15 14:23:00,62.4,55.4,29.95,SSW,192,1.0,2.0,78,0.00,,,0.00,Wunderground v.1.15,2013-03-15 21:23:00,
2013-03-15 14:34:00,61.4,55.5,29.95,SSW,207,1.0,1.0,81,0.00,,,0.00,Wunderground v.1.15,2013-03-15 21:34:00,
2013-03-15 14:44:00,60.0,54.8,29.95,South,188,4.0,5.0,83,0.00,,,0.00,Wunderground v.1.15,2013-03-15 21:44:00,
2013-03-15 14:54:00,57.9,53.7,29.96,SW,217,3.0,3.0,86,0.00,,,0.00,Wunderground v.1.15,2013-03-15 21:54:00,
2013-03-15 15:03:00,57.8,54.0,29.95,WSW,247,1.0,4.0,87,0.00,,,0.00,Wunderground v.1.15,2013-03-15 22:03:00,
2013-03-15 15:14:00,57.7,53.9,29.95,WSW,243,2.0,2.0,87,0.00,,,0.00,Wunderground v.1.15,2013-03-15 22:14:00,
2013-03-15 15:23:00,57.2,53.0,29.96,SW,235,3.0,3.0,86,0.00,,,0.00,Wunderground v.1.15,2013-03-15 22:23:00,
2013-03-15 15:34:00,56.2,53.3,29.95,West,263,2.0,2.0,90,0.00,,,0.00,Wunderground v.1.15,2013-03-15 22:34:00,
2013-03-15 15:44:00,55.8,52.9,29.95,SSW,213,2.0,2.0,90,0.00,,,0.00,Wunderground v.1.15,2013-03-15 22:44:00,
2013-03-15 15:54:00,56.6,53.7,29.94,SW,230,0.0,0.0,90,0.00,,,0.00,Wunderground v.1.15,2013-03-15 22:54:00,
2013-03-15 16:03:00,58.1,53.9,29.94,West,264,1.0,4.0,86,0.00,,,0.00,Wunderground v.1.15,2013-03-15 23:03:00,
2013-03-15 16:13:00,57.6,53.1,29.95,West,271,3.0,7.0,85,0.00,,,0.00,Wunderground v.1.15,2013-03-15 23:13:00,
2013-03-15 16:24:00,56.2,53.0,29.95,WNW,285,3.0,3.0,89,0.00,,,0.00,Wunderground v.1.15,2013-03-15 23:24:00,
2013-03-15 16:34:00,54.6,52.0,29.95,West,279,3.0,6.0,91,0.00,,,0.00,Wunderground v.1.15,2013-03-15 23:34:00,
2013-03-15 16:43:00,54.8,52.5,29.95,West,262,2.0,3.0,92,0.00,,,0.00,Wunderground v.1.15,2013-03-15 23:43:00,
2013-03-15 16:53:00,54.4,52.4,29.95,WNW,288,3.0,4.0,93,0.00,,,0.00,Wunderground v.1.15,2013-03-15 23:53:00,
2013-03-15 17:04:00,54.3,52.3,29.94,West,267,3.0,6.0,93,0.00,,,0.00,Wunderground v.1.15,2013-03-16 00:04:00,
2013-03-15 17:13:00,53.7,51.7,29.94,West,277,3.0,6.0,93,0.00,,,0.00,Wunderground v.1.15,2013-03-16 00:13:00,
2013-03-15 17:23:00,53.6,51.9,29.94,SW,221,2.0,2.0,94,0.00,,,0.00,Wunderground v.1.15,2013-03-16 00:23:00,
2013-03-15 17:34:00,53.4,51.7,29.95,West,281,2.0,2.0,94,0.00,,,0.00,Wunderground v.1.15,2013-03-16 00:34:00,
2013-03-15 17:44:00,53.3,51.6,29.94,WNW,292,1.0,4.0,94,0.00,,,0.00,Wunderground v.1.15,2013-03-16 00:44:00,
2013-03-15 17:54:00,52.9,51.2,29.95,WSW,239,2.0,2.0,94,0.00,,,0.00,Wunderground v.1.15,2013-03-16 00:54:00,
2013-03-15 18:04:00,53.0,51.6,29.94,WSW,243,0.0,0.0,95,0.00,,,0.00,Wunderground v.1.15,2013-03-16 01:04:00,
2013-03-15 18:14:00,52.8,51.4,29.94,SW,223,0.0,0.0,95,0.00,,,0.00,Wunderground v.1.15,2013-03-16 01:14:00,
2013-03-15 18:24:00,52.7,51.3,29.94,SSE,156,0.0,0.0,95,0.00,,,0.00,Wunderground v.1.15,2013-03-16 01:24:00,
2013-03-15 18:33:00,52.8,51.4,29.94,SSE,157,0.0,0.0,95,0.00,,,0.00,Wunderground v.1.15,2013-03-16 01:33:00,
2013-03-15 18:44:00,52.8,51.1,29.94,SW,228,0.0,0.0,94,0.00,,,0.00,Wunderground v.1.15,2013-03-16 01:44:00,
2013-03-15 18:54:00,52.7,51.0,29.94,WSW,257,0.0,0.0,94,0.00,,,0.00,Wunderground v.1.15,2013-03-16 01:54:00,
2013-03-15 19:04:00,52.4,50.7,29.94,SW,221,0.0,0.0,94,0.00,,,0.00,Wunderground v.1.15,2013-03-16 02:04:00,
2013-03-15 19:13:00,52.3,50.9,29.94,SW,218,0.0,0.0,95,0.00,,,0.00,Wunderground v.1.15,2013-03-16 02:13:00,
2013-03-15 19:23:00,52.2,50.8,29.94,West,259,0.0,0.0,95,0.00,,,0.00,Wunderground v.1.15,2013-03-16 02:23:00,
2013-03-15 19:34:00,51.9,50.5,29.94,SW,235,1.0,1.0,95,0.00,,,0.00,Wunderground v.1.15,2013-03-16 02:34:00,
2013-03-15 19:44:00,51.8,50.4,29.94,SSW,203,0.0,0.0,95,0.00,,,0.00,Wunderground v.1.15,2013-03-16 02:44:00,
2013-03-15 19:54:00,51.7,50.3,29.95,SW,223,0.0,0.0,95,0.00,,,0.00,Wunderground v.1.15,2013-03-16 02:54:00,
2013-03-15 20:03:00,51.3,49.9,29.95,SW,216,0.0,0.0,95,0.00,,,0.00,Wunderground v.1.15,2013-03-16 03:03:00,
2013-03-15 20:13:00,51.2,50.1,29.96,West,276,1.0,4.0,96,0.00,,,0.00,Wunderground v.1.15,2013-03-16 03:13:00,
2013-03-15 20:24:00,51.2,50.1,29.97,WNW,288,2.0,2.0,96,0.00,,,0.00,Wunderground v.1.15,2013-03-16 03:24:00,
2013-03-15 20:34:00,51.3,50.2,29.96,West,271,1.0,1.0,96,0.00,,,0.00,Wunderground v.1.15,2013-03-16 03:34:00,
2013-03-15 20:44:00,51.2,50.1,29.96,WNW,294,2.0,2.0,96,0.00,,,0.00,Wunderground v.1.15,2013-03-16 03:44:00,
2013-03-15 20:54:00,51.4,50.6,29.97,WSW,248,0.0,0.0,97,0.00,,,0.00,Wunderground v.1.15,2013-03-16 03:54:00,
2013-03-15 21:03:00,51.3,50.5,29.97,SW,225,0.0,0.0,97,0.00,,,0.00,Wunderground v.1.15,2013-03-16 04:03:00,
2013-03-15 21:13:00,51.4,50.6,29.97,NW,317,0.0,0.0,97,0.00,,,0.00,Wunderground v.1.15,2013-03-16 04:13:00,
2013-03-15 21:24:00,51.3,50.5,29.97,West,270,0.0,0.0,97,0.00,,,0.00,Wunderground v.1.15,2013-03-16 04:24:00,
2013-03-15 21:34:00,51.3,50.5,29.97,South,191,0.0,0.0,97,0.00,,,0.00,Wunderground v.1.15,2013-03-16 04:34:00,
2013-03-15 21:44:00,51.3,50.5,29.98,West,271,0.0,0.0,97,0.00,,,0.00,Wunderground v.1.15,2013-03-16 04:44:00,
2013-03-15 21:53:00,51.3,50.5,29.97,West,271,0.0,0.0,97,0.00,,,0.00,Wunderground v.1.15,2013-03-16 04:53:00,
2013-03-15 22:04:00,51.4,50.6,29.97,SSE,168,0.0,0.0,97,0.00,,,0.00,Wunderground v.1.15,2013-03-16 05:04:00,
2013-03-15 22:14:00,51.4,50.6,29.97,SSE,150,0.0,0.0,97,0.00,,,0.00,Wunderground v.1.15,2013-03-16 05:14:00,
2013-03-15 22:23:00,51.3,50.5,29.97,East,99,0.0,0.0,97,0.00,,,0.00,Wunderground v.1.15,2013-03-16 05:23:00,
2013-03-15 22:34:00,51.2,50.4,29.97,SE,136,0.0,0.0,97,0.00,,,0.00,Wunderground v.1.15,2013-03-16 05:34:00,
2013-03-15 22:43:00,51.0,50.2,29.97,SE,129,0.0,0.0,97,0.00,,,0.00,Wunderground v.1.15,2013-03-16 05:43:00,
2013-03-15 22:54:00,50.8,50.0,29.96,SSE,150,1.0,1.0,97,0.00,,,0.00,Wunderground v.1.15,2013-03-16 05:54:00,
2013-03-15 23:03:00,50.9,50.1,29.96,East,96,0.0,2.0,97,0.00,,,0.00,Wunderground v.1.15,2013-03-16 06:03:00,
2013-03-15 23:13:00,50.9,50.1,29.96,East,96,1.0,1.0,97,0.00,,,0.00,Wunderground v.1.15,2013-03-16 06:13:00,
2013-03-15 23:23:00,51.0,50.2,29.96,East,95,0.0,0.0,97,0.00,,,0.00,Wunderground v.1.15,2013-03-16 06:23:00,
2013-03-15 23:34:00,51.0,50.2,29.96,South,180,1.0,2.0,97,0.00,,,0.00,Wunderground v.1.15,2013-03-16 06:34:00,
2013-03-15 23:44:00,50.9,50.1,29.96,ESE,111,0.0,0.0,97,0.00,,,0.00,Wunderground v.1.15,2013-03-16 06:44:00,
2013-03-15 23:53:00,50.9,50.1,29.95,South,187,1.0,1.0,97,0.00,,,0.00,Wunderground v.1.15,2013-03-16 06:53:00,